Other Public Products
Issued by NWS Grand Forks, ND

Home | Current Version | Previous Version | Text Only | Print | Product List | Glossary On
Versions: 1 2 3 4 5 6 7 8 9 10 11 12 13 14 15 16 17 18 19 20 21 22 23 24 25 26 27 28 29 30 31 32 33 34 35 36 37 38 39 40 41 42 43 44 45 46 47 48 49 50
000
FPUS83 KFGF 240510
OPUFGF
PRAIRIE TO PINES WEATHER ROUNDUP
NATIONAL WEATHER SERVICE EASTERN NORTH DAKOTA/GRAND FORKS ND
1200 AM CDT MON JUL 24 2017

 **SATELLITE DATA USED TO AUGMENT SKY COVER AT AUTOMATED STATIONS**
 *****  WEATHER ACROSS EASTERN NORTH DAKOTA  *****

CITY           SKY/WX    TMP DP  RH WIND       PRES   REMARKS
GRAND FORKS    FAIR      62  61  96 S5        29.98S
GRAND FORKS AF FAIR      60  59  95 S5        29.98F
GRAND CITY NWS NOT AVBL
BUXTON         NOT AVBL
DEVILS LAKE    FAIR      68  63  84 SE12      29.98F
FARGO          NOT AVBL
WAHPETON ARPT  FAIR      61  57  88 CALM      30.02R
$$

 *****  WEATHER ACROSS CENTRAL AND WESTERN NORTH DAKOTA  *****

CITY           SKY/WX    TMP DP  RH WIND       PRES   REMARKS
JAMESTOWN      FAIR      64  60  87 S5        29.99S
BISMARCK       FAIR      66  59  78 SE6       29.95F
MINOT          FAIR      70  59  68 SE9       29.91F
MINOT AFB      FAIR      67  58  74 SE12      29.89F
GARRISON         N/A     66  59  78 S3        29.93S
WILLISTON      FAIR      78  54  43 SE10      29.84F
DICKINSON      FAIR      71  56  58 S16       29.92F
HETTINGER      FAIR      71  54  54 SE13      29.96F
$$

 *****  OTHER OBSERVATIONS NORTHEAST NORTH DAKOTA  *****

CITY           SKY/WX    TMP DP  RH WIND       PRES   REMARKS
WALHALLA       NOT AVBL
LANGDON        FAIR      63  63 100 S9        29.99S
CAVALIER       FAIR      64  63  94 CALM      29.96S
GRAFTON        FAIR      61  61 100 S6        29.99S
CANDO          NOT AVBL
FORT TOTTEN      N/A     66  62  88 SE6       29.95
ROLLA            N/A     59  59 100 S6        29.97F
RUGBY          NOT AVBL
 ***** THE ABOVE OBSERVATIONS ARE NON NWS ARE NOT QUALITY
        CONTROLLED AND MAY MIS-REPORT RAIN FOR SNOW...
$$

 *****  OTHER OBSERVATIONS SOUTHEAST NORTH DAKOTA *****

CITY           SKY/WX    TMP DP  RH WIND       PRES   REMARKS
COOPERSTOWN    FAIR      63  61  94 SE7       30.00F
VALLEY CITY    FAIR      64  64 100 S8        30.02F
OAKES          NOT AVBL
GWINNER        CLEAR     61  59  94 CALM      30.01S
BUFFALO        NOT AVBL
WYNDMERE       NOT AVBL
 ***** THE ABOVE OBSERVATIONS ARE NON NWS ARE NOT QUALITY
       CONTROLLED AND MAY MIS-REPORT RAIN FOR SNOW...
$$

  *****  WEATHER ACROSS NORTHERN MINNESOTA  *****

CITY           SKY/WX    TMP DP  RH WIND       PRES   REMARKS
FLAG ISLAND      N/A     70  61  73 CALM      29.98S HAZE
WARROAD        FAIR      63  59  88 CALM      30.01R
ROSEAU         FAIR      63  57  82 CALM      30.00S
HALLOCK        FAIR      63  61  94 SE7       29.97S
THF RVR FALLS  FAIR      62  57  83 S5        30.01S
HALSTAD        NOT AVBL
FOSSTON        FAIR      57  55  94 SE3       30.03S
BAUDETTE       FAIR      61  58  90 SW6       30.00S
WASKISH        FAIR      57  55  94 CALM      30.02S
CROOKSTON      FAIR      63  61  94 S3        30.00S
$$
  *****  WEATHER ACROSS CENTRAL AND WEST MINNESOTA  *****

CITY           SKY/WX    TMP DP  RH WIND       PRES   REMARKS
BEMIDJI        FAIR      57  55  92 CALM      30.03S
PARK RAPIDS    FAIR      58  54  86 SW5       30.04R
WADENA         FAIR      57  57 100 CALM      30.04S
DETROIT LAKES  FAIR      64  57  77 SE5       30.04S
MOORHEAD       FAIR      64  61  88 CALM      30.01S
FERGUS FALLS   FAIR      64  63  94 NE3       30.02R
ELBOW LAKE     FAIR      66  62  86 CALM      30.03S
MORRIS MN      FAIR      63  59  88 CALM      30.02R
STAPLES        FAIR      61  57  88 CALM      30.05R
WHEATON        FAIR      63  57  82 CALM      30.03S
$$
  *****  WEATHER ELSEWHERE ACROSS MINNESOTA  *****

CITY           SKY/WX    TMP DP  RH WIND       PRES   REMARKS
DULUTH         FOG       54  54 100 SE6       30.05S VSB 3/4
INTRNTL FALLS  FAIR      52  50  93 CALM      30.01R
ELY            FAIR      54  52  94 CALM      30.05S
CLOQUET        CLOUDY    55  54  94 E5        30.06R FOG
BRAINERD       FAIR      58  57  97 CALM      30.05R
HIBBING        FAIR      53  53 100 CALM      30.06R
ALEXANDRIA     FAIR      64  60  87 E6        30.05R
SAINT CLOUD    FAIR      58  58 100 CALM      30.04R
MINNEAPOLIS    FAIR      65  56  72 NE7       30.03R
$$

  *****  WEATHER ACROSS SOUTH DAKOTA  *****

CITY           SKY/WX    TMP DP  RH WIND       PRES   REMARKS
SIOUX FALLS    FAIR      63  59  87 NE6       30.03R
BROOKINGS      FAIR      63  59  87 E3        30.04S
WATERTOWN      FAIR      63  59  87 CALM      30.03S
HURON          FAIR      67  62  84 SE8       30.00S
SISSETON         N/A     59  57  93 SW3       30.01S
ABERDEEN       FAIR      64  61  90 SE7       30.00S
MITCHELL       FAIR      65  61  87 SE7       30.01R
PIERRE         FAIR      69  56  62 SE7       29.96F
MOBRIDGE       FAIR      69  60  73 SE12      29.95S
RAPID CITY     FAIR      68  48  48 SE6       29.97S
$$

  *****  SOME WEATHER IN NEARBY STATES *****

CITY           SKY/WX    TMP DP  RH WIND       PRES   REMARKS
GLASGOW MT     NOT AVBL
GREAT FALLS MT FAIR      72  37  28 W7        29.82S
CHEYENNE WY    FAIR      72  46  39 S17G24    30.17S
SCOTTSBLUFF NE FAIR      79  48  33 S7        30.00S
OMAHA NE       FAIR      73  61  65 NE7       30.01R
DES MOINES IA  FAIR      71  60  68 N3        29.98R
DAVENPORT IA   FAIR      66  62  87 NW6       29.95R
CHICAGO IL     MOCLDY    71  65  81 NE20G25   29.88R
EAU CLAIRE WI  CLOUDY    64  57  78 N9        30.01R
LA CROSSE WI   FAIR      66  61  84 NW8       29.97R
$$

  *****  SOME NATIONAL WEATHER *****

CITY           SKY/WX    TMP DP  RH WIND       PRES   REMARKS
LA GUARDIA NY  CLOUDY    73  69  87 E10       29.84F
RALEIGH NC     MOCLDY    73  71  93 SW6       29.89R
ATLANTA GA     MOCLDY    79  74  84 SW3       29.94F
NEW ORLEANS LA FAIR      77  73  87 CALM      29.97R
OKLAHOMA CITY  MOCLDY    74  70  87 S5        29.97R
ALBUQUERQUE NM MOCLDY    73  58  59 S13       30.21R
SALT LAKE CITY FAIR      85  44  23 SE8       30.00R
LOS ANGELES CA FAIR      68  63  84 W7        29.91R
BOISE ID       FAIR      79  40  24 SE5       29.86R
SEATTLE WA     FAIR      65  54  67 N8        30.04R
$$

*** WEATHER ACROSS MANITOBA...SASKATCHEWAN AND ONTARIO ***
                ***ONTARIO***

CITY           SKY/WX    TMP DP  RH WIND       PRES   REMARKS
GERALDTON      PTCLDY    55  50  82 CALM      30.02R
THUNDER BAY    CLEAR     54  54 100 W3        30.02R
SIOUX LOOKOUT  PTCLDY    57  55  94 S2        29.99R
TORONTO        CLOUDY    68  57  68 E8        29.74F
BIG TROUT LK   MOCLDY    66  52  59 S10       29.89R
PICKLE LAKE    NOT AVBL
DRYDEN         CLEAR     66  57  72 SW3       29.99S
KENORA         NOT AVBL
$$
                *** MANITOBA***

CITY           SKY/WX    TMP DP  RH WIND       PRES   REMARKS
BRANDON        PTCLDY    64  61  88 S6        29.91F
DAUPHIN        CLOUDY    70  59  68 SW8       29.85F
ISLAND LAKE    NOT AVBL
PILOT MOUND      N/A     57  55  94 S7          N/A
THE PAS        PTCLDY    63  61  94 SE3       29.78F
THOMPSON       PTCLDY    55  54  94 CALM      29.78F
WINNIPEG       CLEAR     64  61  88 S6        29.94S
LYNN LAKE      CLEAR     59  57  94 S5        29.77S
CHURCHILL      CLOUDY    63  59  88 NW7       29.72R
GILLAM         CLOUDY    64  57  77 VRB2      29.77S
$$
                ***SASKATCHEWAN***

CITY           SKY/WX    TMP DP  RH WIND       PRES   REMARKS
ESTEVAN        PTCLDY    70  57  64 SE7       29.83F
KINDERSLEY     MOCLDY    73  57  56 SE17G26   29.62F
LLOYDMINSTER   CLOUDY    64  59  82 E12G23    29.64F
PRINCE ALBERT  CLOUDY    64  63  94 E7        29.74F
REGINA         CLEAR     72  57  60 SE14      29.76F
YORKTON        MOCLDY    70  61  73 SE9       29.84S
N. BATTLEFORD  TSTM      68  61  77 N10G21    29.67F



USA.gov is the U.S. government's official web portal to all federal, state and local government web resources and services.